Tracking 23732 objects as of 28-Sep-2021
HD Live streaming from Space Station
objects crossing your sky now

DMSP 5D-2 F13 DEB

Track DMSP 5D-2 F13 DEB now!
10-day predictions


NORAD ID: 40580
Int'l Code: 1995-015EP
Perigee: 834.6 km
Apogee: 860.6 km
Inclination: 98.9 °
Period: 101.7 minutes
Semi major axis: 7218 km
RCS: Unknown
Launch date: March 24, 1995
Source: United States (US)
Launch site: AIR FORCE WESTERN TEST RANGE (AFWTR)

Note: This is SATELLITE DEBRIS
aabbcc
Your satellite tracking list
Your tracking list is empty




NASA's NSSDC Master Catalog

Two Line Element Set (TLE):
1 40580U 95015EP  21270.92767005  .00001002  00000-0  53436-3 0  9992
2 40580  98.8619 267.1428 0017980 209.4674 150.5487 14.15550532334749
Source of the keplerian elements: AFSPC